EHI
0 0 0 0 0 0 0 0 0 0 0 0 0 0 0 0 0 0 0 0 0 0 0 0 0 0 0 0 0 0 0 0 0 0 0 0 0 0 0 0 0 0 0 0
0 0 0 0 0 0 0 0 0 0 0 0 0 0 0 0 0 0 0 0 0 0 0 0 0 0 0 0 0 0 0 0 0 0 0 0 0 0 0 0 0 0 0 0
0 0 0 0 0 0 0 0 0 0 0 0 0 0 0 0 0 0 0 0 0 0 0 0 0 0 0 0 0 0 0 0 0 0 0 0 0 0 0 0 0 0 0 0
0 0 0 0 0 0 0 0 0 0 0 0 0 0 0 0 0 0 0 0 0 0 0 0 0 0 0 0 0 0 0 0 0 0 0 0 0 0 0 0 0 0 0 0
0 0 0 0 0 0 0 0 0 0 0 0 0 0 0 0 0 0 0 0 0 0 0 0 0 0 0 0 0 0 0 0 0 0 0 0 0 0 0 0 0 0 0 0
0 0 0 0 0 0 0 0 0 0 0 0 0 0 0 0 0 0 0 0 0 0 0 0 0 0 0 0 0 0 0 0 0 0 0 0 0 0 0 0 0 0 0 0
0 0 0 0 0 0 0 0 0 0 0 0 0 0 0 0 0 0 0 0 0 0 0 0 0 0 0 0 0 0 0 0 0 0 0 0 0 0 0 0 0 0 0 0
0 0 0 0 0 0 0 0 0 0 0 0 0 0 0 0 0 0 0 0 0 0 0 0 0 0 0 0 0 0 0 0 0 0 0 0 0 0 0 0 0 0 0 0
0 0 0 0 0 0 0 0 0 0 0 0 0 0 0 0 0 0 0 0 0 0 0 0 0 0 0 0 0 0 0 0 0 0 0 0 0 0 0 0 0 0 0 0
0 0 0 0 0 0 0 0 0 0 0 0 0 0 0 0 0 0 0 0 0 0 0 0 0 0 0 0 0 0 0 0 0 0 0 0 0 0 0 0 0 0 0 0
0 0 0 0 0 0 0 0 0 0 0 0 0 0 0 0 0 0 0 0 0 0 0 0 0 0 0 0 0 0 0 0 0 0 0 0 0 0 0 0 0 0 0 0
0 0 0 0 0 0 0 0 0 0 0 0 0 0 0 0 0 0 0 0 0 0 0 0 0 0 0 0 0 0 0 0 0 0 0 0 0 0 0 0 0 0 0 0
0 0 0 0 0 0 0 0 0 0 0 0 0 0 0 0 0 0 0 0 0 0 0 0 0 0 0 0 0 0 0 0 0 0 0 0 0 0 0 0 0 0 0 0
0 0 0 0 0 0 0 0 0 0 0 0 0 0 0 0 0 0 0 0 0 0 0 0 0 0 0 0 0 0 0 0 0 0 0 0 0 0 0 0 0 0 0 0
0 0 0 0 0 0 0 0 0 0 0 0 0 0 0 0 0 0 0 0 0 0 0 0 0 0 0 0 0 0 0 0 0 0 0 0 0 0 0 0 0 0 0 0
0 0 0 0 0 0 0 0 0 0 0 0 0 0 0 0 0 0 0 0 0 0 0 0 0 0 0 0 0 0 0 0 0 0 0 0 0 0 0 0 0 0 0 0
0 0 0 0 0 0 0 0 0 0 0 0 0 0 0 0 0 0 0 0 0 0 0 0 0 0 0 0 0 0 0 0 0 0 0 0 0 0 0 0 0 0 0 0
0 0 0 0 0 0 0 0 0 0 0 0 0 0 0 0 0 0 0 0 0 0 0 0 0 0 0 0 0 0 0 0 0 0 0 0 0 0 0 0 0 0 0 0
0 0 0 0 0 0 0 0 0 0 0 0 0 0 0 0 0 0 0 0 0 0 0 0 0 0 0 0 0 0 0 0 0 0 0 0 0 0 0 0 0 0 0 0
0 0 0 0 0 0 0 0 0 0 0 0 0 0 0 0 0 0 0 0 0 0 0 0 0 0 0 0 0 0 0 0 0 0 0 0 0 0 0 0 0 0 0 0
0 0 0 0 0 0 0 0 0 0 0 0 0 0 0 0 0 0 0 0 0 0 0 0 0 0 0 0 0 0 0 0 0 0 0 0 0 0 0 0 0 0 0 0
0 0 0 0 0 0 0 0 0 0 0 0 0 0 0 0 0 0 0 0 0 0 0 0 0 0 0 0 0 0 0 0 0 0 0 0 0 0 0 0 0 0 0 0
0 0 0 0 0 0 0 0 0 0 0 0 0 0 0 0 0 0 0 0 0 0 0 0 0 0 0 0 0 0 0 0 0 0 0 0 0 0 0 0 0 0 0 0
0 0 0 0 0 0 0 0 0 0 0 0 0 0 0 0 0 0 0 0 0 0 0 0 0 0 0 0 0 0 0 0 0 0 0 0 0 0 0 0 0 0 0 0
0 0 0 0 0 0 0 0 0 0 0 0 0 0 0 0 0 0 0 0 0 0 0 0 0 0 0 0 0 0 0 0 0 0 0 0 0 0 0 0 0 0 0 0
0 0 0 0 0 0 0 0 0 0 0 0 0 0 0 0 0 0 0 0 0 0 0 0 0 0 0 0 0 0 0 0 0 0 0 0 0 0 0 0 0 0 0 0
Wind_Speed
3 3 2 5 5 4 3 2 2 4 3 3 5 6 5 6 6 7 6 6 7 7 4 3 4 6 6 5 5 4 4 4 4 3 3 3 2 2 2 3 3 3 3 3
4 2 5 3 3 3 2 1 2 3 1 2 3 5 4 6 8 8 9 9 9 6 4 4 5 6 6 6 5 4 4 4 4 2 2 2 2 2 1 2 3 3 3 3
4 4 2 4 3 3 2 3 3 2 2 3 1 4 3 3 4 5 6 7 8 9 9 7 6 6 6 7 7 6 5 4 4 4 3 3 3 3 3 3 2 3 3 3
3 3 2 3 3 5 3 3 3 2 1 2 1 3 6 3 4 6 8 8 9 8 8 7 8 7 7 7 6 6 5 5 4 4 4 4 3 2 0 0 1 2 3 3
3 2 3 3 4 6 4 1 2 1 2 1 1 2 8 1 4 8 9 10 9 10 10 9 9 9 7 7 6 6 5 4 4 4 5 5 3 2 1 1 2 3 3 3
3 2 3 4 1 3 4 5 5 5 4 1 3 3 7 4 7 6 8 10 10 10 10 8 7 6 6 6 6 6 6 4 4 4 4 5 5 4 3 2 2 2 2 2
2 2 1 2 3 3 4 5 3 4 3 5 2 3 9 7 6 7 8 10 10 10 10 9 9 8 7 8 7 7 7 5 4 5 4 4 5 5 4 3 2 2 1 1
2 4 3 3 5 5 3 7 6 3 3 4 2 5 8 5 4 4 5 6 8 10 10 10 10 9 9 9 8 8 8 6 5 5 4 4 4 3 2 3 2 2 1 1
5 4 2 2 3 8 5 3 5 5 1 2 5 6 8 2 2 1 2 5 7 9 10 10 9 9 9 9 9 9 8 6 6 5 5 4 4 3 3 3 3 2 1 1
6 3 2 1 4 3 5 7 4 4 2 3 5 4 4 4 3 1 2 5 6 7 8 8 9 9 9 8 8 8 8 7 6 6 5 4 4 3 3 3 3 3 2 2
4 4 1 1 4 5 4 4 4 4 4 3 3 6 5 5 5 4 5 5 6 7 8 8 8 8 8 7 7 7 7 6 6 6 5 4 4 3 3 3 3 3 2 3
3 4 2 4 3 4 5 6 7 4 3 3 2 8 5 5 4 4 4 4 5 6 6 7 8 8 8 8 8 8 7 7 6 6 5 5 4 4 4 3 3 3 3 3
5 5 2 3 3 1 2 4 5 5 4 4 4 8 4 2 2 2 2 3 4 5 6 6 7 8 9 8 8 8 7 7 6 6 6 5 5 4 4 3 3 3 3 3
6 4 6 7 6 4 3 4 5 6 4 5 7 8 7 5 3 3 2 3 4 5 6 7 7 7 8 8 8 8 7 7 6 6 6 6 5 5 4 3 3 3 4 4
5 4 4 5 5 4 5 6 7 7 8 8 7 8 9 7 5 4 3 3 4 5 6 8 8 8 8 8 8 8 7 7 7 7 7 6 5 4 4 3 3 3 3 3
3 4 2 3 3 3 4 6 8 7 6 6 5 8 7 5 3 3 4 5 6 7 8 8 8 9 9 10 9 9 8 8 8 8 7 6 6 5 5 4 4 4 3 3
2 4 3 3 2 1 5 7 8 5 5 7 8 9 4 3 4 5 6 7 8 8 8 9 10 10 11 11 10 11 9 8 8 8 7 7 6 6 5 5 5 5 4 3
5 4 3 2 1 5 8 4 6 6 5 6 5 5 4 6 5 4 5 7 7 7 7 8 8 9 8 9 9 9 9 9 9 8 7 7 6 6 5 5 5 4 3 3
6 6 4 3 3 6 6 2 4 4 4 3 4 4 3 2 0 3 4 6 7 7 7 7 8 8 8 9 10 10 9 9 9 8 8 8 8 7 6 6 5 4 4 3
4 4 4 4 4 6 6 3 2 3 3 3 3 4 2 3 1 5 3 4 4 4 5 5 6 6 8 8 10 11 10 10 9 9 8 7 7 8 7 7 5 3 4 4
4 3 4 4 4 7 6 2 3 4 6 3 3 4 4 5 6 4 2 2 2 3 4 6 7 7 8 9 11 11 10 10 9 7 7 6 7 7 6 6 4 4 4 4
8 6 6 5 4 7 3 4 6 6 3 2 3 3 3 4 3 2 1 2 2 3 4 6 7 6 6 9 11 10 10 8 7 7 7 7 6 6 6 6 5 5 5 5
6 7 7 8 7 5 3 5 4 2 2 2 2 2 3 2 2 1 1 1 2 3 4 5 6 7 6 7 9 10 8 7 8 8 7 6 6 5 6 7 6 5 4 4
3 2 3 2 5 4 4 3 2 3 3 2 2 2 2 2 2 1 2 2 3 3 3 4 6 7 6 6 6 7 7 8 9 8 7 7 7 6 5 4 5 5 5 4
4 3 3 3 4 3 4 3 2 2 1 0 1 1 3 4 2 2 3 3 3 3 3 5 6 7 7 7 6 6 7 9 9 8 6 6 6 6 5 4 3 4 4 5
5 6 7 6 6 4 5 3 2 2 2 1 1 1 0 2 3 3 3 3 3 4 4 5 5 6 6 7 6 6 7 9 9 7 6 5 5 5 5 5 4 4 3 4
Wind_Direction
63 81 194 206 189 177 161 170 253 263 249 183 221 242 237 194 193 196 199 200 205 211 215 188 167 150 142 138 136 138 133 134 126 109 102 93 73 42 40 42 56 67 75 85
50 258 229 188 159 147 161 203 272 290 296 194 238 261 249 201 204 201 198 201 203 202 188 176 159 151 151 156 156 148 151 149 143 128 118 116 111 79 55 37 45 49 66 79
188 239 179 154 159 157 204 198 223 248 351 23 348 308 279 237 214 208 203 200 199 198 191 178 169 167 163 170 171 166 164 155 145 130 108 87 64 49 37 30 25 19 47 71
231 247 169 164 194 162 230 222 202 198 115 299 33 288 282 249 229 219 213 201 200 199 189 180 177 176 178 179 170 159 160 154 145 138 133 130 123 118 123 62 37 31 44 61
247 195 164 193 212 172 200 108 110 115 137 345 331 229 283 284 244 236 219 209 201 194 189 188 185 182 179 170 164 155 153 151 149 145 143 133 123 126 108 77 71 50 38 47
241 235 189 195 168 147 125 74 58 48 69 297 237 195 277 239 227 236 218 210 200 191 188 189 182 170 167 159 155 148 151 156 155 150 149 146 143 140 125 104 88 57 40 37
314 297 231 141 102 60 94 88 35 358 1 261 254 215 252 252 242 228 218 208 197 185 181 179 174 174 172 166 165 159 159 162 163 158 159 161 158 156 156 155 142 119 76 47
185 278 237 181 163 162 157 137 154 200 234 282 290 243 258 269 280 256 215 188 179 180 182 184 182 179 177 175 169 164 168 167 167 166 169 164 159 156 157 159 152 150 150 147
178 243 273 190 153 137 135 159 160 136 190 279 281 284 299 300 349 5 164 168 180 184 183 185 180 177 176 175 174 171 170 168 169 169 163 162 160 158 158 153 143 144 148 142
160 210 272 158 89 55 141 142 111 125 157 272 294 285 269 292 295 290 202 197 194 184 181 182 179 179 177 175 169 165 166 168 167 166 169 167 165 165 158 148 147 150 143 118
144 160 293 121 176 168 120 119 120 127 157 170 275 278 243 246 248 240 231 210 193 184 181 181 179 177 169 159 159 164 164 160 162 168 166 154 157 154 149 154 163 158 145 137
141 126 213 250 245 178 160 166 151 157 206 183 196 270 276 258 251 232 229 212 189 181 176 172 169 165 163 163 165 168 168 168 171 169 162 158 153 149 153 163 166 154 149 147
142 122 93 347 340 170 175 174 164 138 130 162 187 264 294 315 287 249 219 200 180 167 161 159 162 169 171 171 171 171 172 174 167 159 156 153 152 155 165 168 159 152 148 139
128 133 169 197 220 199 206 191 164 144 167 199 220 251 291 299 285 270 228 196 178 172 168 167 171 176 175 175 175 173 174 170 164 158 157 161 165 168 170 162 154 154 151 144
124 163 205 231 238 201 210 211 186 190 193 197 226 232 254 261 253 242 208 190 177 180 180 181 180 179 176 174 176 176 173 168 163 159 164 174 167 159 153 151 154 150 147 150
119 156 172 255 251 224 235 230 210 211 204 215 238 257 252 254 245 231 207 193 198 200 196 190 186 181 181 182 180 176 174 171 163 166 174 168 158 158 161 162 154 144 141 138
137 136 143 237 276 1 261 224 200 203 199 189 217 239 241 245 238 226 212 202 207 209 202 195 192 190 188 186 180 178 174 164 165 170 169 167 164 163 169 162 151 151 153 145
151 135 141 175 131 233 246 229 193 201 226 209 226 243 227 227 238 239 215 204 210 209 203 198 193 191 187 182 175 167 159 160 166 168 168 167 164 164 158 152 159 158 150 152
167 150 147 157 205 264 288 254 172 183 249 211 211 245 256 230 10 288 238 210 208 206 202 196 189 183 174 170 164 155 156 160 165 172 174 172 166 163 161 165 169 162 152 152
132 137 143 155 185 229 242 251 209 133 263 255 198 216 225 119 149 268 255 212 212 201 189 180 167 156 160 162 155 155 162 165 176 182 179 170 166 166 170 171 163 152 149 156
131 137 165 173 207 254 251 251 113 149 242 257 199 203 186 188 214 247 256 206 189 178 172 161 157 161 166 158 154 159 165 180 183 172 162 158 164 169 166 156 150 145 141 137
168 164 177 163 191 245 233 138 170 215 238 219 207 203 198 222 249 263 235 192 151 142 144 149 154 158 154 155 156 162 178 179 159 153 155 158 159 162 154 145 142 142 141 140
188 184 180 186 207 229 204 201 220 200 215 231 216 220 176 204 243 250 182 158 145 140 144 146 147 144 146 158 161 168 174 152 147 148 155 154 150 149 145 148 146 139 143 146
245 174 152 217 255 252 252 248 244 225 219 231 216 193 173 194 208 184 147 143 133 129 142 137 137 140 149 158 161 162 150 145 145 150 153 148 145 143 139 144 147 149 158 159
215 171 158 226 264 296 285 258 256 260 252 267 87 166 183 168 168 160 148 143 142 131 138 140 145 152 158 156 150 144 143 141 142 145 147 145 145 147 143 137 144 158 171 173
205 185 174 210 215 200 244 264 255 210 211 182 122 9 337 157 154 141 138 140 136 132 135 135 138 143 147 146 144 145 146 146 144 143 147 147 145 145 143 137 109 72 101 130